#timestamp,LO_Frequency,Hit,StdDev 
1557993615.9,286046998.5,N
1557993635.6,286047000.2,N
1557993655.5,286047001.2,N
1557993675.3,286046996.6,N
1557993695.1,286046997.2,N
1557993715.9,286046998.7,N
1557993735.7,286046998.8,N
1557993755.6,286046999.6,N
1557993775.1,286046998.4,N
1557993806.0,286047000.5,E
1557993815.0,286047001.7,N
1557993815.9,286047001.7,P
1557993835.8,286047002.7,P
1557993855.6,286046999.8,N
1557993875.4,286047000.6,N
1557993895.3,286047000.9,N
1557993915.1,286047002.1,N
1557993935.9,286047002.6,N
1557993955.7,286047000.6,N
1557993975.5,286046996.5,Y
1557993995.4,286046999.4,P
1557994015.2,286046998.4,N
1557994035.0,286046999.4,N
1557994036.0,286046999.4,N
1557994055.2,286046998.9,N
1557994075.1,286046996.9,Y
1557994076.0,286046996.9,P
1557994095.8,286046996.8,N
1557994115.8,286046995.3,P
1557994135.8,286046997.3,N
1557994155.6,286046999.0,N
1557994175.5,286046998.3,N
1557994195.3,286046998.5,N
1557994215.1,286047011.9,Y
1557994235.9,286047000.3,P
1557994255.7,286047001.6,N
1557994275.5,286047001.9,N
1557994295.4,286047004.0,N
1557994315.2,286047005.1,N
1557994335.1,286047004.8,N
1557994336.0,286047004.8,N
1557994355.8,286047005.9,N
1557994375.6,286047007.0,N
1557994395.5,286047007.7,N
1557994415.3,286047010.6,Y
1557994435.1,286047005.7,P
1557994455.9,286047003.9,P
1557994475.7,286047006.0,P
1557994495.8,286047004.4,Y
1557994515.7,286046996.5,P
1557994535.5,286046997.1,N
1557994555.4,286046997.3,N
1557994575.2,286046995.0,N
1557994595.0,286046996.2,N
1557994595.9,286046996.2,N
1557994615.8,286046993.5,N
1557994635.6,286046991.7,N
1557994655.4,286046992.3,N
1557994675.3,286046994.6,N
1557994695.1,286046993.5,N
1557994715.9,286046994.0,N
1557994735.7,286046993.7,N
1557994755.5,286046993.7,N
1557994775.4,286046995.1,N
1557994795.2,286046994.0,N
1557994815.0,286046994.5,N
1557994815.9,286046994.5,N
1557994835.8,286046994.7,N
1557994855.6,286046990.5,Y
1557994875.5,286046995.0,P
1557994895.3,286046999.4,P
1557994915.1,286046998.0,N
1557994935.9,286046996.9,N
1557994955.7,286046995.2,N
1557994975.6,286046996.1,N
1557994995.4,286046996.2,N
1557995015.2,286046996.3,N
1557995035.1,286046993.5,Y
1557995036.0,286046993.5,P
1557995055.8,286046996.9,N
1557995075.6,286046997.7,N
1557995095.4,286046997.4,N
1557995115.3,286046999.4,N
1557995135.1,286046999.4,N
1557995155.8,286046999.3,N
1557995175.7,286046998.3,N
1557995195.5,286047000.6,N
1557995215.4,286046999.3,N
1557995235.2,286046996.6,N
1557995255.0,286046999.4,N
1557995255.9,286046999.4,N
1557995275.8,286046999.2,N
1557995295.6,286046996.6,N
1557995315.4,286046996.5,N
1557995335.3,286046999.2,N
1557995355.1,286046998.6,N
1557995375.9,286047000.8,N
1557995395.7,286046999.6,N
1557995415.5,286047001.2,N
1557995435.4,286047000.8,N
1557995455.2,286047001.2,N
1557995475.0,286046999.0,N
1557995475.9,286046999.0,N
1557995495.8,286046999.0,N
1557995515.6,286046996.5,N
1557995535.5,286046999.2,N
1557995555.3,286046999.0,N
1557995575.1,286046996.9,N
1557995595.9,286046999.5,N
1557995615.5,286046996.8,N
1557995635.3,286046996.6,N
1557995655.2,286046999.2,N
1557995675.9,286046998.2,N
1557995695.7,286047001.1,N
1557995715.6,286046998.2,N
1557995735.4,286046998.7,N
1557995755.2,286046996.9,N
1557995775.1,286046998.3,N
1557995776.0,286046998.3,N
1557995795.8,286047001.0,N
1557995815.7,286046999.1,N
1557995835.5,286046999.3,N
1557995855.3,286046996.7,N
1557995875.2,286046997.3,N
1557995895.0,286046997.5,N
1557995895.9,286046997.5,N
1557995915.8,286046996.9,N
1557995935.6,286046999.1,N
1557995955.4,286046998.0,N
1557995975.3,286046996.8,N
1557995995.1,286046997.2,N
1557995996.0,286046997.2,N
1557996015.8,286046998.3,N
1557996035.7,286046999.5,N
1557996055.5,286046999.6,N
1557996075.4,286046997.7,N
1557996095.2,286046997.8,N
1557996115.0,286046995.6,Y
1557996115.9,286046995.6,P
1557996135.8,286047000.7,N
1557996155.6,286046998.4,N
1557996175.5,286046999.4,N
1557996195.3,286047000.7,N
1557996215.1,286046998.1,N
1557996235.9,286047000.1,N
1557996255.7,286047000.1,N
1557996275.5,286047000.1,N
1557996295.4,286047000.7,N
1557996315.2,286046996.7,N
1557996335.0,286046996.5,N
1557996336.0,286046996.5,N
1557996355.8,286046998.2,N
1557996375.6,286047000.7,N
1557996395.5,286047000.3,N
1557996415.3,286046998.6,N
1557996435.1,286046998.1,N
1557996455.9,286047000.7,N
1557996475.7,286046998.6,N
1557996495.5,286047000.9,N
1557996515.4,286046999.9,N
1557996535.2,286047000.8,N
1557996555.1,286047000.7,N
1557996556.0,286047000.7,N
1557996575.8,286047000.8,N
1557996595.6,286047000.0,N
1557996615.5,286047000.2,N
1557996635.3,286047000.0,N
1557996655.1,286047000.3,N
1557996675.9,286046998.1,N
1557996695.7,286047001.1,N
1557996715.6,286047000.9,N
1557996735.4,286047001.1,N
1557996755.2,286046999.6,N
1557996775.1,286046997.3,N
1557996776.0,286046997.3,N
1557996795.8,286046999.5,N
1557996815.6,286046998.7,N
1557996835.5,286046998.2,N
1557996855.3,286047000.6,N
1557996875.2,286047002.0,N
1557996895.9,286047002.3,N
1557996915.7,286046999.7,N
1557996935.6,286047002.8,N
1557996955.4,286047001.6,N
1557996975.2,286047003.1,N
1557996995.1,286047006.0,Y
1557996996.0,286047006.0,P
1557997015.8,286047003.3,N
1557997035.7,286047005.1,N
1557997055.5,286047004.7,N
1557997075.3,286047003.9,N
1557997095.2,286047003.8,N
1557997115.0,286047005.9,Y
1557997115.9,286047005.9,P
1557997135.8,286047000.7,N
1557997155.6,286047000.4,N
1557997175.4,286047000.8,N
1557997195.3,286046999.2,N
